Tracking 28125 objects as of 2-Oct-2023
HD Live streaming from Space Station
objects crossing your sky now

SPACEBEENZ-12

Track SPACEBEENZ-12 now!
10-day predictions


NORAD ID: 52028
Int'l Code: 2022-026W
Perigee: 405.7 km
Apogee: 426.5 km
Inclination: 97.5 °
Period: 92.7 minutes
Semi major axis: 6787 km
RCS: Unknown
Launch date: March 15, 2022
Source: New Zealand (NZ)
Launch site: Kodiak Island, Alaska (KODAK)
Your satellite tracking list
Your tracking list is empty




NASA's NSSDC Master Catalog

Two Line Element Set (TLE):
1 52028U 22026W   23275.00147011  .00142507  00000-0  22663-2 0  9992
2 52028  97.5063 283.4449 0015327  63.9952 296.2876 15.52671448 86068
Source of the keplerian elements: AFSPC